Starlink 31484

operational
NORAD ID: 59005 Int'l Des: 2024-036 Owner: SPXS Country: US Constellation: starlink
LEOCIRCULAR

Starlink 31484について

説明を読み込み中...

リアルタイム位置

3D地球を読み込み中...

次回通過

高度履歴

Altitude vs Time

uPlot chart will show altitude changes over time

軌道要素

1 59005U 24036H 25257.06115426 .00000893 00000-0 42284-4 0 9994
2 59005 53.1575 178.3349 0001298 94.6353 265.4796 15.30192025 88285
Epoch: Sep 14, 2025 • Age: 31 hours

現在のステータス

高度 479.8 km
速度 7.63 km/s
衛星直下点 -16.25°S, 111.44°W
打ち上げ日 Feb 23, 2024
運用期間 1.5 years
タイプ internet

技術仕様

分類 Payload
質量 730.00 kg
乾燥質量 700.00 kg
総質量 730.00 kg
長さ 0.30 m
直径 4.10 m
スパン 29.00 m
形状 Box + pan
製造者 SPXS
バスタイプ Starlink V2M
フェーズステータス In Orbit
所有者/国 SPXS/US

大規模コンステレーション

Loading constellations...